Date String (YYYY-MM-DD hh:mm:ss) UTC,Instrument flags,Ambient pressure (hPa),Sample flow (lpm),Bypass flow (lpm),Sample temperature (°C),Ambient temperature (°C),ASC tube jacket temperature (°C),LED temperature (°C),Box temperature (°C),Sample RH (%),Span deviation,Mass concentration (μg/m³),Mass concentration (μg/m³),Mass concentration (μg/m³)
DateTimeUTC,F1_M11,P_M11,Q1_M11,Q2_M11,T1_M11,T2_M11,T3_M11,T4_M11,T5_M11,U1_M11,ZSPAN_M11,X0_M11,X2_M11,X1_M11
2022-03-14 02:00:00,,0817.6,5.00,0.00,27.8,26.6,00.0,36.9,29.4,09.1,0000.0,0003.38,0001.21,0000.89
2022-03-14 02:01:00,,0817.6,5.00,0.00,27.7,26.6,00.0,36.9,29.4,09.2,0000.0,0003.31,0001.18,0000.88
2022-03-14 02:02:00,,0817.6,5.00,0.00,27.7,26.6,00.0,36.9,29.4,09.2,0000.0,0003.17,0001.14,0000.86
2022-03-14 02:03:00,,0817.7,4.99,0.00,27.7,26.5,00.0,36.8,29.3,09.1,0000.0,0002.35,0001.11,0000.85
2022-03-14 02:04:00,,0817.6,5.00,0.00,27.7,26.5,00.0,36.8,29.3,09.1,0000.0,0002.46,0001.07,0000.83
2022-03-14 02:05:00,,0817.6,5.00,0.00,27.6,26.4,00.0,36.8,29.3,09.2,0000.0,0002.45,0001.02,0000.82
2022-03-14 02:06:00,,0817.7,4.99,0.00,27.6,26.4,00.0,36.8,29.3,09.2,0000.0,0002.59,0001.02,0000.81
2022-03-14 02:07:00,,0817.7,5.01,0.00,27.6,26.4,00.0,36.8,29.2,09.2,0000.0,0002.55,0001.01,0000.80
2022-03-14 02:08:00,,0817.8,5.00,0.00,27.6,26.3,00.0,36.8,29.2,09.3,0000.0,0002.50,0000.98,0000.79
2022-03-14 02:09:00,,0817.8,4.99,0.00,27.5,26.3,00.0,36.7,29.1,09.4,0000.0,0002.56,0001.01,0000.79
2022-03-14 02:10:00,,0817.8,5.01,0.00,27.5,26.3,00.0,36.7,29.1,09.4,0000.0,0002.52,0001.00,0000.80
2022-03-14 02:11:00,,0817.9,5.00,0.00,27.4,26.3,00.0,36.7,29.0,09.5,0000.0,0002.58,0001.03,0000.80
2022-03-14 02:12:00,,0817.9,4.99,0.00,27.4,26.2,00.0,36.6,29.0,09.5,0000.0,0002.69,0001.07,0000.80
2022-03-14 02:13:00,,0817.9,5.00,0.00,27.3,26.2,00.0,36.6,28.9,09.5,0000.0,0003.30,0001.09,0000.80
2022-03-14 02:14:00,,0818.0,5.02,0.00,27.3,26.2,00.0,36.6,28.9,09.6,0000.0,0003.61,0001.10,0000.80
2022-03-14 02:15:00,,0818.0,4.99,0.00,27.3,26.1,00.0,36.5,28.9,09.6,0000.0,0002.78,0001.09,0000.80
2022-03-14 02:16:00,,0818.0,4.98,0.00,27.2,26.1,00.0,36.5,28.8,09.7,0000.0,0002.73,0001.10,0000.79
2022-03-14 02:17:00,,0818.0,5.01,0.00,27.2,26.1,00.0,36.5,28.8,09.7,0000.0,0002.59,0001.10,0000.79
2022-03-14 02:18:00,,0818.1,5.01,0.00,27.2,26.0,00.0,36.4,28.7,09.7,0000.0,0003.14,0001.08,0000.79
2022-03-14 02:19:00,,0818.2,4.99,0.00,27.1,26.0,00.0,36.4,28.6,09.7,0000.0,0003.35,0001.09,0000.79
2022-03-14 02:20:00,,0818.2,4.99,0.00,27.1,26.0,00.0,36.4,28.6,09.9,0000.0,0003.27,0001.05,0000.77
2022-03-14 02:21:00,,0818.3,5.02,0.00,27.1,26.0,00.0,36.3,28.7,09.9,0000.0,0003.27,0001.04,0000.75
2022-03-14 02:22:00,,0818.3,4.99,0.00,27.1,26.0,00.0,36.3,28.6,09.9,0000.0,0003.27,0001.03,0000.74
2022-03-14 02:23:00,,0818.4,5.00,0.00,27.0,26.0,00.0,36.3,28.5,10.0,0000.0,0003.15,0000.97,0000.74
2022-03-14 02:24:00,,0818.3,5.00,0.00,27.0,25.9,00.0,36.3,28.6,10.1,0000.0,0002.61,0000.96,0000.74
2022-03-14 02:25:00,,0818.4,5.01,0.00,27.0,25.9,00.0,36.3,28.6,10.1,0000.0,0002.18,0000.94,0000.73
2022-03-14 02:26:00,,0818.4,5.00,0.00,27.0,25.9,00.0,36.2,28.6,10.0,0000.0,0002.48,0000.96,0000.73
2022-03-14 02:27:00,,0818.3,5.00,0.00,27.0,25.9,00.0,36.2,28.6,10.0,0000.0,0002.71,0000.98,0000.73
2022-03-14 02:28:00,,0818.4,5.00,0.00,27.0,25.9,00.0,36.2,28.6,09.9,0000.0,0002.77,0000.98,0000.72
2022-03-14 02:29:00,,0818.4,5.00,0.00,27.0,25.9,00.0,36.2,28.5,09.9,0000.0,0002.17,0000.99,0000.71
2022-03-14 02:30:00,,0818.3,4.99,0.00,26.9,25.9,00.0,36.2,28.5,10.1,0000.0,0001.95,0000.95,0000.71
2022-03-14 02:31:00,,0818.3,5.00,0.00,26.9,25.8,00.0,36.1,28.5,10.1,0000.0,0001.93,0000.94,0000.70
2022-03-14 02:32:00,,0818.4,5.01,0.00,26.9,25.8,00.0,36.1,28.5,10.1,0000.0,0001.97,0000.93,0000.69
2022-03-14 02:33:00,,0818.4,4.99,0.00,26.9,25.8,00.0,36.1,28.5,10.1,0000.0,0002.19,0000.93,0000.68
2022-03-14 02:34:00,,0818.4,4.99,0.00,26.8,25.8,00.0,36.1,28.4,10.2,0000.0,0002.21,0000.95,0000.67
2022-03-14 02:35:00,,0818.4,5.01,0.00,26.8,25.8,00.0,36.0,28.3,10.3,0000.0,0002.12,0000.90,0000.65
2022-03-14 02:36:00,,0818.4,4.99,0.00,26.8,25.7,00.0,36.0,28.3,10.4,0000.0,0002.09,0000.88,0000.64
2022-03-14 02:37:00,,0818.3,4.99,0.00,26.8,25.7,00.0,36.0,28.4,10.4,0000.0,0001.90,0000.86,0000.62
2022-03-14 02:38:00,,0818.4,5.00,0.00,26.8,25.7,00.0,36.0,28.4,10.4,0000.0,0001.71,0000.85,0000.61
2022-03-14 02:39:00,,0818.4,5.01,0.00,26.8,25.7,00.0,36.0,28.3,10.4,0000.0,0001.69,0000.84,0000.60
2022-03-14 02:40:00,,0818.3,4.99,0.00,26.7,25.7,00.0,35.9,28.3,10.6,0000.0,0001.64,0000.82,0000.59
2022-03-14 02:41:00,,0818.2,5.00,0.00,26.7,25.6,00.0,35.9,28.3,10.6,0000.0,0001.65,0000.82,0000.59
2022-03-14 02:42:00,,0818.3,4.99,0.00,26.7,25.6,00.0,35.9,28.3,10.6,0000.0,0001.64,0000.82,0000.58
2022-03-14 02:43:00,,0818.3,5.01,0.00,26.6,25.6,00.0,35.9,28.3,10.8,0000.0,0001.56,0000.80,0000.58
2022-03-14 02:44:00,,0818.4,5.00,0.00,26.6,25.5,00.0,35.8,28.3,10.6,0000.0,0001.24,0000.77,0000.57
2022-03-14 02:45:00,,0818.4,4.98,0.00,26.6,25.5,00.0,35.8,28.2,10.7,0000.0,0001.22,0000.75,0000.57
2022-03-14 02:46:00,,0818.4,5.01,0.00,26.6,25.5,00.0,35.8,28.2,10.7,0000.0,0001.28,0000.77,0000.57
2022-03-14 02:47:00,,0818.4,5.00,0.00,26.5,25.4,00.0,35.7,28.0,10.7,0000.0,0001.29,0000.76,0000.56
2022-03-14 02:48:00,,0818.4,5.00,0.00,26.5,25.4,00.0,35.7,28.0,10.8,0000.0,0001.29,0000.76,0000.56
2022-03-14 02:49:00,,0818.4,4.99,0.00,26.5,25.4,00.0,35.7,28.0,10.6,0000.0,0001.15,0000.73,0000.56
2022-03-14 02:50:00,,0818.5,5.00,0.00,26.4,25.4,00.0,35.7,27.9,10.9,0000.0,0001.08,0000.70,0000.55
2022-03-14 02:51:00,,0818.4,5.01,0.00,26.4,25.4,00.0,35.6,27.9,10.9,0000.0,0001.08,0000.71,0000.55
2022-03-14 02:52:00,,0818.5,5.00,0.00,26.4,25.4,00.0,35.6,27.9,10.9,0000.0,0001.12,0000.71,0000.54
2022-03-14 02:53:00,,0818.5,5.00,0.00,26.4,25.3,00.0,35.6,27.8,10.9,0000.0,0001.19,0000.74,0000.55
2022-03-14 02:54:00,,0818.5,5.00,0.00,26.3,25.3,00.0,35.6,27.8,10.9,0000.0,0001.25,0000.76,0000.55
2022-03-14 02:55:00,,0818.6,5.00,0.00,26.3,25.2,00.0,35.5,27.8,11.0,0000.0,0001.24,0000.76,0000.55
2022-03-14 02:56:00,,0818.7,5.01,0.00,26.3,25.2,00.0,35.5,27.8,11.1,0000.0,0001.15,0000.72,0000.54
2022-03-14 02:57:00,,0818.8,5.01,0.00,26.3,25.1,00.0,35.5,27.8,11.0,0000.0,0001.09,0000.71,0000.53
2022-03-14 02:58:00,,0818.7,4.99,0.00,26.3,25.2,00.0,35.5,27.8,11.0,0000.0,0001.10,0000.71,0000.53
2022-03-14 02:59:00,,0818.7,4.99,0.00,26.3,25.2,00.0,35.5,27.9,11.1,0000.0,0001.05,0000.70,0000.54
